Overview Statistics Trail Chart Weather Telemetry Raw packets
 

This is the latest recevied weather packets stored in our database for station/object K7FLA. If no packets are shown the sender has not sent any weather packets the latest 10 day(s).

<< 86 87 88 89 90 91 92 >>
Time Temp. Humidity Pressure Rain* Wind** Luminosity Snow
1788032446 37.22° C 24% 1095.3 hPa 0 mm - 793 W/m² -
1788032142 37.22° C 26% 1095.4 hPa 0 mm - 800 W/m² -
1788031833 37.22° C 27% 1095.5 hPa 0 mm - 427 W/m² -
1788031532 36.67° C 25% 1095.6 hPa 0 mm - 994 W/m² -
1788031226 37.22° C 27% 1095.6 hPa 0 mm - 1065 W/m² -
1788030926 37.22° C 25% 1096 hPa 0 mm - 480 W/m² -
1788030625 37.78° C 26% 1096 hPa 0 mm - 625 W/m² -
1788030320 37.78° C 28% 1096 hPa 0 mm - 588 W/m² -
1788030016 37.78° C 25% 1096.1 hPa 0 mm - 754 W/m² -
1788029710 38.33° C 25% 1096.1 hPa 0 mm - 993 W/m² -
1788029405 38.89° C 27% 1096.2 hPa 0 mm - 642 W/m² -
1788029104 38.33° C 26% 1096.3 hPa 0 mm - 808 W/m² -
1788028799 38.33° C 27% 1096.3 hPa 0 mm - 777 W/m² -
1788028499 37.78° C 26% 1096.5 hPa 0 mm - 773 W/m² -
1788028194 38.33° C 26% 1096.4 hPa 0 mm - 760 W/m² -
1788027889 38.33° C 25% 1096.5 hPa 0 mm - 749 W/m² -
1788027584 38.89° C 27% 1096.5 hPa 0 mm - 741 W/m² -
1788027284 38.89° C 27% 1096.5 hPa 0 mm - 732 W/m² -
1788026983 38.89° C 28% 1096.5 hPa 0 mm - 724 W/m² -
1788026678 38.89° C 28% 1096.4 hPa 0 mm - 717 W/m² -
1788026373 38.33° C 27% 1096.6 hPa 0 mm - 708 W/m² -
1788026069 38.33° C 28% 1096.6 hPa 0 mm - 699 W/m² -
1788025767 37.78° C 26% 1096.6 hPa 0 mm - 688 W/m² -
1788025468 37.78° C 26% 1096.6 hPa 0 mm - 678 W/m² -
1788025157 37.78° C 28% 1096.7 hPa 0 mm - 665 W/m² -

* Rain latest hour (hover to see other rain measurements)
** Current wind speed in m/s (hover to see current wind gust speed)